Starlink 30144

operational
NORAD ID: 56835 Int'l Des: 2023-079 Owner: SPXS Country: US Constellation: starlink
LEOCIRCULAR

Über Starlink 30144

Beschreibung wird geladen...

Live-Position

3D-Globus wird geladen...

Nächste Überflüge

Höhenverlauf

Altitude vs Time

uPlot chart will show altitude changes over time

Zweizeiliger Elementsatz

1 56835U 23079N 25260.23167185 .00004268 00000-0 33109-3 0 9995
2 56835 43.0068 329.7414 0001407 266.2053 93.8628 15.02507976126799
Epoch: 17. Sept. 2025 • Age: 24 hours

Aktueller Status

Höhe 563.0 km
Geschwindigkeit 7.59 km/s
Subsatellitenpunkt 42.01°N, 16.14°W
Startdatum 4. Juni 2023
Alter 2.2 years
Typ internet

Technische Details

Klassifizierung Payload
Masse 730.00 kg
Trockenmasse 700.00 kg
Gesamtmasse 730.00 kg
Länge 0.30 m
Durchmesser 4.10 m
Spannweite 29.00 m
Form Box + pan
Hersteller SPXS
Bus-Typ Starlink V2M
Phasenstatus In Orbit
Besitzer/Staat SPXS/US

Große Konstellationen

Loading constellations...